{"data":{"norad_id":67207,"intl_designator":"2025-304R","name":"STARLINK-36225","alt_names":[],"object_type":"PAYLOAD","status":"ACTIVE","operator":null,"country":"US","launch_date":"2025-12-17","launch_site_code":"AFWTR","launch_vehicle":null,"mission":null,"orbit_class":"UNKNOWN","rcs_meters":null,"size_class":null,"mass_kg":null,"dimensions":null,"purposes":["comms"],"wikipedia_slug":null,"has_3d_model":false,"image_url":null,"decayed_at":null,"tle_current":{"epoch":"2026-05-24T22:21:44.152128Z","epoch_age_seconds":74843,"freshness":"FRESH","line1":"1 67207U 25304R   26144.93176102  .00002800  00000+0  24232-3 0  9997","line2":"2 67207  70.0015 342.2750 0002555 265.4275  94.6592 14.98336554 25301","mean_motion":14.98336554,"eccentricity":0.0002555,"inclination_deg":70.0015,"raan_deg":342.275,"arg_perigee_deg":265.4275,"mean_anomaly_deg":94.6592,"bstar":0.00024232,"rev_number":2530,"period_min":96.106578735981,"perigee_km":570.25985420868,"apogee_km":573.81139241919,"semimajor_km":6950.1726233139,"source":"CELESTRAK","updated_at":"2026-05-25T13:38:21.511069Z"}}}